www.pogodaiklimat.ru

Погода и климат >> Архив погоды >> Алжир >> Багния


ПОГОДА в Багнии

  • Прогноз погоды в Багнии
  • Монитор погоды в Багнии

АРХИВ ПОГОДЫ в Багнии

Время (UTC), дата Ветер
(напр.,м/с)
 
Видим.   Явления Облачность Т
(С)
Тd
(С)
f
(%)
Тe
(С)
Тes
(С)
Комфортность P
(гПа)
Po
(гПа)
Тmin
(С)
Tmax
(С)
R
(мм)
R24
(мм)
S
(см)
15 14.07 СЗ 3 10 км ясно +33.5 +11.7 27 +34 +44 очень
жарко
1011.5 964.6
18 14.07 С 4 10 км ясно +31.2 +11.3 29 +31 +32 жарко 1011.5 964.3 +34.1
06 15.07 штиль 0 10 км ясно +19.4 +9.1 51 +20 +21 1012.5 963.3 +18.3
09 15.07 Ю 3 10 км ясно +30.2 +12.2 33 +31 +41 жарко 1012.0 964.6
12 15.07 СЗ 5 10 км ясно +33.7 +12.8 28 +34 +45 очень
жарко
1011.3 964.4
15 15.07 СЗ 6 10 км ясно +33.9 +12.1 27 +34 +39 очень
жарко
1010.9 964.1
18 15.07 СЗ 2 10 км ясно +32.4 +13.5 32 +34 +35 очень
жарко
1011.1 964.1 +34.6
06 16.07 штиль 0 10 км ясно +19.2 +8.2 49 +20 +21 1012.5 963.3 +17.7
09 16.07 штиль 0 10 км ясно +31.1 +12.0 31 +32 +48 жарко 1012.2 964.9
12 16.07 штиль 0 10 км ясно +36.1 +10.7 21 +35 +63 опасность
солнечного
удара
1011.3 964.8
15 16.07 С 3 10 км ясно +37.7 +12.9 23 +38 +49 очень
жарко
1010.4 964.2
18 16.07 СВ 3 10 км ясно +33.1 +14.5 33 +35 +36 душно 1010.9 964.0 +38.3
06 17.07 штиль 0 10 км 3/3 800 м
[Cu med, cong]
+21.3 +15.6 70 +25 +25 комфорт 1012.2 963.4 +20.8
09 17.07 З 1 10 км 3/3 800 м
[Cu med, cong]
+27.4 +13.4 42 +29 +40 жарко 1013.3 965.4
12 17.07 штиль 0 10 км 5/3 800 м
[Cu med, cong Ac cast]
+31.4 +14.1 35 +33 +49 жарко 1012.2 965.0
15 17.07 В 4 10 км 5/4 800 м
[Cu med, cong Ac cast]
+32.4 +18.2 43 +37 +42 очень
душно
1011.2 964.1
18 17.07 В 3 10 км 3/3 800 м
[Cu med, cong]
+28.6 +17.2 50 +33 +33 очень
душно
1011.6 964.0 +33.1
06 18.07 штиль 0 10 км 1/1 800 м
[Cu med, cong]
+15.9 +11.4 75 +16 +17 1014.2 964.4 +15.6
09 18.07 В 3 10 км 1/1 800 м
[Cu med, cong]
+25.5 +12.5 44 +27 +36 жарко 1014.2 965.9
12 18.07 СВ 4 10 км ясно +31.4 +9.2 25 +31 +46 жарко 1012.6 965.3
15 18.07 СВ 5 10 км ясно +33.4 +11.3 26 +33 +41 жарко 1011.2 964.3
18 18.07 В 3 10 км ясно +30.3 +10.6 30 +30 +31 жарко 1011.4 964.0 +33.7
06 19.07 штиль 0 10 км ясно +19.5 +12.5 64 +21 +22 комфорт 1012.2 963.1 +19.2
09 19.07 штиль 0 10 км ясно +24.6 +19.1 71 +30 +45 очень
душно
1012.7 964.4
12 19.07 СВ 2 10 км ясно +31.8 +20.0 50 +38 +59 опасность
солнечного
удара
1010.7 963.6
15 19.07 СВ 2 10 км 3/0
[Ci fib]
+34.3 +20.6 45 +41 +53 опасность
перегрева
1008.0 961.4
18 19.07 СВ 2 10 км 5/3 800 м
[Cu med, cong Ci fib]
+32.4 +21.1 51 +40 +40 очень
душно
1007.0 960.1 +35.2
06 20.07 штиль 0 10 км 4/4 800 м
[Cu med, cong]
+23.0 +20.0 83 +30 +30 очень
душно
1011.6 963.1 +22.5
09 20.07 З 1 10 км 3/3 800 м
[Cu med, cong]
+26.3 +20.2 69 +32 +42 очень
душно
1012.2 964.2
12 20.07 штиль 0 10 км 1/1 800 м
[Cu med, cong]
+31.6 +20.4 52 +39 +64 опасность
солнечного
удара
1011.5 964.3
15 20.07 СВ 5 10 км 4/4 800 м
[Cu med, cong]
+34.9 +21.6 46 +43 +47 опасность
перегрева
1010.2 963.6
18 20.07 штиль 0 10 км 5/5 800 м
[Cu med, cong]
+29.2 +20.7 60 +36 +37 очень
душно
1011.7 964.1 +35.7
06 21.07 штиль 0 8000 м 5/3 800 м
[Cu med, cong Ci fib]
+23.4 +20.0 81 +30 +31 очень
душно
1015.6 966.9 +22.6
09 21.07 ЮЗ 2 8000 м 5/3 800 м
[Cu med, cong Ci fib]
+26.4 +20.8 71 +33 +41 очень
душно
1015.7 967.5
12 21.07 СЗ 3 10 км 5/3 800 м
[Cu med, cong Ci fib]
+31.7 +21.2 54 +39 +51 опасность
солнечного
удара
1015.0 967.7

 

Местоположение метеостанции Багния (Алжир): широта 34.82 долгота -1.78 высота над уровнем моря 426 м.

В архиве по умолчанию представлена погода в Багнии за последнюю неделю. Архивные данные за месяц целиком и за предыдущие месяцы, начиная с января 2011 года, Вы можете получить, выбрав интересующий диапазон дат из раскрывающегося списка и нажав кнопку "Ввод!".


*Определитесь, кто Вы:
робот инопланетянин человек

Внимание! Время в таблицах - всемирное. Для получения местного времени необходимо прибавить поправку, которая равна 1 ч.

Смотрите также архив погоды в соседних городах и на ближайших метеорологических станциях:

Погода в Уджде (Марокко) (14 км)
Погода в Газауэте (Алжир) (32 км)
Погода в Аэропорту Messali El Hadj (Алжир) (36 км)
Погода в Бени-Сафе (Алжир) (66 км)
Погода в Сиди-Бель-Аббесе (Алжир) (114 км)
Погода в Аль-Аруи (Марокко) (115 км)
Погода в Мелилье (Испания) (118 км)
Погода в Оран-Тафрауи (Алжир) (136 км)
Погода в Оран аэропорту (Алжир) (140 км)
Погода в Оране (Алжир) (142 км)

Пояснения к столбцам:

Ветер - указаны скорость ветра в м/с - средняя за 10 мин, порывы в срок и между сроками (в фигурных скобках) и направление, откуда дует ветер: С - северный, СВ - северо-восточный, В - восточный, ЮВ - юго-восточный, Ю - южный, ЮЗ - юго-западный, З - западный, СЗ - северо-западный.
Видимость - горизонтальная дальность видимости в метрах или километрах. При видимости от 1 до 10 км при отсутствии осадков обычно наблюдается дымка, при ухудшении видимости до 1 км и менее - туман. В сухую погоду видимость может ухудшаться дымом, пылью или мглою.
Явления - указаны атмосферные явления, наблюдавшиеся в срок или в последний час перед сроком; фигурными скобками обозначены явления, наблюдавшиеся между сроками (за 1-3 часа до срока); квадратными скобками обозначены град или гололедные отложения с указанием их диаметра в мм.
Облачность - указаны через наклонную черту общая и нижняя облачность в баллах и высота нижней границы облаков в метрах; квадратными скобками обозначены формы облаков: Ci - перистые, Cs - перисто-слоистые, Cc - перисто-кучевые, Ac - высококучевые, As - высокослоистые, Sc - слоисто-кучевые, Ns - слоисто-дождевые, Cu - кучевые, Cb - кучево-дождевые. Подробнее классификацию облаков см. в Атласе облаков (PDF).
T - Температура воздуха - температура, измеренная на высоте 2 м над землей.
Td - Температура точки росы - температура, при понижении до которой содержащийся в воздухе водяной пар достигнет насыщения.
f - Относительная влажность воздуха - влажноcть воздуха, измеренная на высоте 2 м над землей.
Te - Эффективная температура - температура, которую ощущает одетый по сезону человек в тени. Характеристика душности погоды. При расчете учитывается влияние влажности воздуха и скорости ветра на теплоощущения человека.
Tes - Эффективная температура на солнце - температура, которую ощущает человек, с поправкой на солнечный нагрев. Характеристика знойности погоды. Зависит от высоты солнца над горизонтом, облачности и скорости ветра. Ночью, в пасмурную погоду, а также при ветре 12 м/с и более поправка равна нулю.
P - Атмосферное давление - приведенное к уровню моря атмосферное давление.
Po - Атмосферное давление - измеренное на уровне метеостанции атмосферное давление.
Tmin - Минимальная температура - минимум температуры воздуха на высоте 2 м над землей.
Tmax - Максимальная температура - максимум температуры воздуха на высоте 2 м над землей.
R - Количество осадков - Количество выпавших осадков за период времени, мм. При наведении курсора мыши на число - период времени, за который выпало указанное количество осадков.
R24 - Количество осадков - Количество выпавших осадков за 24 часа, мм.
S - Снежный покров - Высота снежного покрова, см. При наведении курсора мыши на число - состояние снежного покрова и степень покрытия местности в баллах.